Time,TemperatureF,DewpointF,PressureIn,WindDirection,WindDirectionDegrees,WindSpeedMPH,WindSpeedGustMPH,Humidity,HourlyPrecipIn,Conditions,Clouds,dailyrainin,SoftwareType,DateUTC
2013-08-15 00:01:00,51.9,45.6,30.10,NW,315,0.0,0.0,79,0.00,,---,0.19,VWS V14.01,2013-08-15 04:01:00,
2013-08-15 00:06:00,51.8,45.5,30.10,NW,315,0.0,0.0,79,0.00,,---,0.00,VWS V14.01,2013-08-15 04:06:00,
2013-08-15 00:11:00,51.8,45.5,30.10,NW,315,0.0,0.0,79,0.00,,---,0.00,VWS V14.01,2013-08-15 04:11:00,
2013-08-15 00:16:00,51.6,45.3,30.10,NW,315,0.0,0.0,79,0.00,,---,0.00,VWS V14.01,2013-08-15 04:16:00,
2013-08-15 00:21:00,51.6,45.3,30.10,NW,315,0.0,0.0,79,0.00,,---,0.00,VWS V14.01,2013-08-15 04:21:00,
2013-08-15 00:26:00,51.6,45.3,30.10,NW,315,0.0,0.0,79,0.00,,---,0.00,VWS V14.01,2013-08-15 04:26:00,
2013-08-15 00:31:00,51.6,45.3,30.10,NW,315,0.0,0.0,79,0.00,,---,0.00,VWS V14.01,2013-08-15 04:31:00,
2013-08-15 00:36:00,51.4,45.1,30.10,NW,315,0.0,0.0,79,0.00,,---,0.00,VWS V14.01,2013-08-15 04:36:00,
2013-08-15 00:41:00,51.4,45.1,30.10,NW,315,0.0,0.0,79,0.00,,---,0.00,VWS V14.01,2013-08-15 04:41:00,
2013-08-15 00:46:00,51.2,44.9,30.11,NW,315,0.0,0.0,79,0.00,,---,0.00,VWS V14.01,2013-08-15 04:46:00,
2013-08-15 00:51:00,51.0,45.1,30.11,NW,315,0.0,0.0,80,0.00,,---,0.00,VWS V14.01,2013-08-15 04:51:00,
2013-08-15 00:56:00,50.9,45.0,30.11,NW,315,0.0,0.0,80,0.00,,---,0.00,VWS V14.01,2013-08-15 04:56:00,
2013-08-15 01:01:00,50.9,45.0,30.11,NW,315,0.0,0.0,80,0.00,,---,0.00,VWS V14.01,2013-08-15 05:01:00,
2013-08-15 01:06:00,50.7,44.8,30.11,NW,315,0.0,0.0,80,0.00,,---,0.00,VWS V14.01,2013-08-15 05:06:00,
2013-08-15 01:11:00,50.7,44.8,30.11,NW,315,0.0,0.0,80,0.00,,---,0.00,VWS V14.01,2013-08-15 05:11:00,
2013-08-15 01:16:00,50.5,44.6,30.11,NW,315,0.0,0.0,80,0.00,,---,0.00,VWS V14.01,2013-08-15 05:16:00,
2013-08-15 01:21:00,50.5,44.6,30.11,NW,315,0.0,0.0,80,0.00,,---,0.00,VWS V14.01,2013-08-15 05:21:00,
2013-08-15 01:26:00,50.3,44.4,30.11,NW,315,0.0,0.0,80,0.00,,---,0.00,VWS V14.01,2013-08-15 05:26:00,
2013-08-15 01:31:00,50.3,44.4,30.11,NW,315,0.0,0.0,80,0.00,,---,0.00,VWS V14.01,2013-08-15 05:31:00,
2013-08-15 01:36:00,50.1,44.2,30.11,NW,315,0.0,0.0,80,0.00,,---,0.00,VWS V14.01,2013-08-15 05:36:00,
2013-08-15 01:41:00,50.1,44.2,30.11,NW,315,0.0,0.0,80,0.00,,---,0.00,VWS V14.01,2013-08-15 05:41:00,
2013-08-15 01:46:00,50.1,44.5,30.11,NW,315,0.0,0.0,81,0.00,,---,0.00,VWS V14.01,2013-08-15 05:46:00,
2013-08-15 01:51:00,49.8,44.2,30.11,NW,315,0.0,0.0,81,0.00,,---,0.00,VWS V14.01,2013-08-15 05:51:00,
2013-08-15 01:56:00,49.8,44.2,30.12,NW,315,0.0,0.0,81,0.00,,---,0.00,VWS V14.01,2013-08-15 05:56:00,
2013-08-15 02:01:00,49.8,44.2,30.12,NNW,338,0.0,0.0,81,0.00,,---,0.00,VWS V14.01,2013-08-15 06:01:00,
2013-08-15 02:06:00,49.8,44.5,30.12,WNW,292,0.0,0.0,82,0.00,,---,0.00,VWS V14.01,2013-08-15 06:06:00,
2013-08-15 02:11:00,49.6,44.3,30.12,WNW,292,0.0,0.0,82,0.00,,---,0.00,VWS V14.01,2013-08-15 06:11:00,
2013-08-15 02:16:00,49.6,44.3,30.12,NW,315,0.0,0.0,82,0.00,,---,0.00,VWS V14.01,2013-08-15 06:16:00,
2013-08-15 02:21:00,49.6,44.3,30.12,NW,315,0.0,0.0,82,0.00,,---,0.00,VWS V14.01,2013-08-15 06:21:00,
2013-08-15 02:26:00,49.6,44.3,30.12,NW,315,0.0,0.0,82,0.00,,---,0.00,VWS V14.01,2013-08-15 06:26:00,
2013-08-15 02:31:00,49.6,44.3,30.12,NW,315,0.0,0.0,82,0.00,,---,0.00,VWS V14.01,2013-08-15 06:31:00,
2013-08-15 02:36:00,49.6,44.3,30.12,NW,315,0.0,0.0,82,0.00,,---,0.00,VWS V14.01,2013-08-15 06:36:00,
2013-08-15 02:41:00,49.4,44.5,30.12,NW,315,0.0,0.0,83,0.00,,---,0.00,VWS V14.01,2013-08-15 06:41:00,
2013-08-15 02:46:00,49.2,44.3,30.12,NW,315,0.0,0.0,83,0.00,,---,0.00,VWS V14.01,2013-08-15 06:46:00,
2013-08-15 02:51:00,49.2,44.3,30.12,NW,315,0.0,0.0,83,0.00,,---,0.00,VWS V14.01,2013-08-15 06:51:00,
2013-08-15 02:56:00,49.2,44.3,30.12,NW,315,0.0,0.0,83,0.00,,---,0.00,VWS V14.01,2013-08-15 06:56:00,
2013-08-15 03:01:00,49.2,44.3,30.12,NW,315,0.0,0.0,83,0.00,,---,0.00,VWS V14.01,2013-08-15 07:01:00,
2013-08-15 03:06:00,49.2,44.3,30.12,NW,315,0.0,0.0,83,0.00,,---,0.00,VWS V14.01,2013-08-15 07:06:00,
2013-08-15 03:11:00,49.2,44.3,30.12,NW,315,0.0,0.0,83,0.00,,---,0.00,VWS V14.01,2013-08-15 07:11:00,
2013-08-15 03:16:00,49.2,44.3,30.12,NW,315,0.0,0.0,83,0.00,,---,0.00,VWS V14.01,2013-08-15 07:16:00,
2013-08-15 03:21:00,49.1,44.2,30.12,NW,315,0.0,0.0,83,0.00,,---,0.00,VWS V14.01,2013-08-15 07:21:00,
2013-08-15 03:26:00,49.1,44.2,30.13,NW,315,0.0,0.0,83,0.00,,---,0.00,VWS V14.01,2013-08-15 07:26:00,
2013-08-15 03:31:00,48.9,43.7,30.12,NW,315,0.0,0.0,82,0.00,,---,0.00,VWS V14.01,2013-08-15 07:31:00,
2013-08-15 03:36:00,48.7,43.8,30.12,NW,315,0.0,0.0,83,0.00,,---,0.00,VWS V14.01,2013-08-15 07:36:00,
2013-08-15 03:41:00,48.7,43.8,30.12,NW,315,0.0,0.0,83,0.00,,---,0.00,VWS V14.01,2013-08-15 07:41:00,
2013-08-15 03:46:00,48.7,43.8,30.12,NW,315,0.0,0.0,83,0.00,,---,0.00,VWS V14.01,2013-08-15 07:46:00,
2013-08-15 03:51:00,48.7,43.8,30.12,NW,315,0.0,0.0,83,0.00,,---,0.00,VWS V14.01,2013-08-15 07:51:00,
2013-08-15 03:56:00,48.5,43.6,30.12,NW,315,0.0,0.0,83,0.00,,---,0.00,VWS V14.01,2013-08-15 07:56:00,
2013-08-15 04:01:00,48.5,43.6,30.12,NW,315,0.0,0.0,83,0.00,,---,0.00,VWS V14.01,2013-08-15 08:01:00,
2013-08-15 04:06:00,48.3,43.4,30.12,NW,315,0.0,0.0,83,0.00,,---,0.00,VWS V14.01,2013-08-15 08:06:00,
2013-08-15 04:11:00,48.3,43.4,30.12,NW,315,0.0,0.0,83,0.00,,---,0.00,VWS V14.01,2013-08-15 08:11:00,
2013-08-15 04:16:00,48.3,43.4,30.12,NW,315,0.0,0.0,83,0.00,,---,0.00,VWS V14.01,2013-08-15 08:16:00,
2013-08-15 04:21:00,48.2,43.3,30.12,NW,315,0.0,0.0,83,0.00,,---,0.00,VWS V14.01,2013-08-15 08:21:00,
2013-08-15 04:26:00,48.0,43.1,30.12,NW,315,0.0,0.0,83,0.00,,---,0.00,VWS V14.01,2013-08-15 08:26:00,
2013-08-15 04:31:00,48.0,42.8,30.12,NW,315,0.0,0.0,82,0.00,,---,0.00,VWS V14.01,2013-08-15 08:31:00,
2013-08-15 04:36:00,48.0,42.8,30.12,NW,315,0.0,0.0,82,0.00,,---,0.00,VWS V14.01,2013-08-15 08:36:00,
2013-08-15 04:41:00,47.8,42.6,30.12,NW,315,0.0,0.0,82,0.00,,---,0.00,VWS V14.01,2013-08-15 08:41:00,
2013-08-15 04:46:00,47.8,42.6,30.12,NW,315,0.0,0.0,82,0.00,,---,0.00,VWS V14.01,2013-08-15 08:46:00,
2013-08-15 04:51:00,47.6,42.4,30.12,NW,315,0.0,0.0,82,0.00,,---,0.00,VWS V14.01,2013-08-15 08:51:00,
2013-08-15 04:56:00,47.4,42.2,30.12,NW,315,0.0,0.0,82,0.00,,---,0.00,VWS V14.01,2013-08-15 08:56:00,
2013-08-15 05:01:00,47.3,42.1,30.12,NW,315,0.0,0.0,82,0.00,,---,0.00,VWS V14.01,2013-08-15 09:01:00,
2013-08-15 05:06:00,47.1,41.9,30.12,NW,315,0.0,0.0,82,0.00,,---,0.00,VWS V14.01,2013-08-15 09:06:00,
2013-08-15 05:11:00,47.1,41.9,30.12,NW,315,0.0,0.0,82,0.00,,---,0.00,VWS V14.01,2013-08-15 09:11:00,
2013-08-15 05:16:00,47.1,41.9,30.12,NW,315,0.0,0.0,82,0.00,,---,0.00,VWS V14.01,2013-08-15 09:16:00,
2013-08-15 05:21:00,46.9,41.7,30.13,NW,315,0.0,0.0,82,0.00,,---,0.00,VWS V14.01,2013-08-15 09:21:00,
2013-08-15 05:26:00,46.7,41.5,30.13,NW,315,0.0,0.0,82,0.00,,---,0.00,VWS V14.01,2013-08-15 09:26:00,
2013-08-15 05:31:00,46.5,41.3,30.13,NW,315,0.0,0.0,82,0.00,,---,0.00,VWS V14.01,2013-08-15 09:31:00,
2013-08-15 05:36:00,46.5,41.3,30.13,NW,315,0.0,0.0,82,0.00,,---,0.00,VWS V14.01,2013-08-15 09:36:00,
2013-08-15 05:41:00,46.5,41.3,30.13,NW,315,0.0,0.0,82,0.00,,---,0.00,VWS V14.01,2013-08-15 09:41:00,
2013-08-15 05:46:00,46.2,41.0,30.13,NW,315,0.0,0.0,82,0.00,,---,0.00,VWS V14.01,2013-08-15 09:46:00,
2013-08-15 05:51:00,46.2,41.0,30.14,NW,315,0.0,0.0,82,0.00,,---,0.00,VWS V14.01,2013-08-15 09:51:00,
2013-08-15 05:56:00,46.2,41.3,30.14,NW,315,0.0,0.0,83,0.00,,---,0.00,VWS V14.01,2013-08-15 09:56:00,
2013-08-15 06:01:00,46.2,41.3,30.14,NW,315,0.0,0.0,83,0.00,,---,0.00,VWS V14.01,2013-08-15 10:01:00,
2013-08-15 06:06:00,46.0,41.1,30.15,NW,315,0.0,0.0,83,0.00,,---,0.00,VWS V14.01,2013-08-15 10:06:00,
2013-08-15 06:11:00,46.0,41.1,30.15,NW,315,0.0,0.0,83,0.00,,---,0.00,VWS V14.01,2013-08-15 10:11:00,
2013-08-15 06:16:00,46.0,41.1,30.15,NW,315,0.0,0.0,83,0.00,,---,0.00,VWS V14.01,2013-08-15 10:16:00,
2013-08-15 06:21:00,46.0,41.1,30.15,NW,315,0.0,0.0,83,0.00,,---,0.00,VWS V14.01,2013-08-15 10:21:00,
2013-08-15 06:26:00,46.0,41.1,30.15,NW,315,0.0,0.0,83,0.00,,---,0.00,VWS V14.01,2013-08-15 10:26:00,
2013-08-15 06:31:00,46.0,41.1,30.15,NW,315,0.0,0.0,83,0.00,,---,0.00,VWS V14.01,2013-08-15 10:31:00,
2013-08-15 06:36:00,46.2,41.6,30.15,NW,315,0.0,0.0,84,0.00,,---,0.00,VWS V14.01,2013-08-15 10:36:00,
2013-08-15 06:41:00,46.2,41.6,30.15,NW,315,0.0,0.0,84,0.00,,---,0.00,VWS V14.01,2013-08-15 10:41:00,
2013-08-15 06:46:00,46.2,42.0,30.15,WNW,292,0.0,0.0,85,0.00,,---,0.00,VWS V14.01,2013-08-15 10:46:00,
2013-08-15 06:51:00,46.5,42.2,30.15,SSE,158,0.0,0.0,85,0.00,,---,0.00,VWS V14.01,2013-08-15 10:51:00,
2013-08-15 06:56:00,46.7,42.4,30.15,NW,315,0.0,0.0,85,0.00,,---,0.00,VWS V14.01,2013-08-15 10:56:00,
2013-08-15 07:01:00,46.9,42.6,30.15,NW,315,0.0,0.0,85,0.00,,---,0.00,VWS V14.01,2013-08-15 11:01:00,
2013-08-15 07:06:00,47.1,43.1,30.15,NW,315,0.0,0.0,86,0.00,,---,0.00,VWS V14.01,2013-08-15 11:06:00,
2013-08-15 07:11:00,47.3,43.3,30.16,NNE,22,0.0,0.0,86,0.00,,---,0.00,VWS V14.01,2013-08-15 11:11:00,
2013-08-15 07:16:00,47.6,43.6,30.15,SSE,158,0.0,0.0,86,0.00,,---,0.00,VWS V14.01,2013-08-15 11:16:00,
2013-08-15 07:21:00,47.8,44.1,30.16,SSE,158,0.0,0.0,87,0.00,,---,0.00,VWS V14.01,2013-08-15 11:21:00,
2013-08-15 07:26:00,48.0,44.3,30.16,NNW,338,0.0,0.0,87,0.00,,---,0.00,VWS V14.01,2013-08-15 11:26:00,
2013-08-15 07:31:00,48.2,44.5,30.16,West,270,0.0,0.0,87,0.00,,---,0.00,VWS V14.01,2013-08-15 11:31:00,
2013-08-15 07:36:00,48.3,44.6,30.16,NW,315,0.0,0.0,87,0.00,,---,0.00,VWS V14.01,2013-08-15 11:36:00,
2013-08-15 07:41:00,48.3,44.6,30.17,NW,315,0.0,0.0,87,0.00,,---,0.00,VWS V14.01,2013-08-15 11:41:00,
2013-08-15 07:46:00,48.7,45.0,30.16,NW,315,0.0,0.0,87,0.00,,---,0.00,VWS V14.01,2013-08-15 11:46:00,
2013-08-15 07:51:00,48.7,45.0,30.17,NW,315,0.0,0.0,87,0.00,,---,0.00,VWS V14.01,2013-08-15 11:51:00,
2013-08-15 07:56:00,48.9,45.2,30.17,NNW,338,0.0,0.0,87,0.00,,---,0.00,VWS V14.01,2013-08-15 11:56:00,
2013-08-15 08:01:00,49.1,45.4,30.17,NNW,338,0.0,0.0,87,0.00,,---,0.00,VWS V14.01,2013-08-15 12:01:00,
2013-08-15 08:06:00,49.2,45.5,30.17,WSW,248,0.0,0.0,87,0.00,,---,0.00,VWS V14.01,2013-08-15 12:06:00,
2013-08-15 08:11:00,49.6,45.9,30.17,NNW,338,0.0,0.0,87,0.00,,---,0.00,VWS V14.01,2013-08-15 12:11:00,
2013-08-15 08:16:00,49.8,46.1,30.17,NW,315,0.0,0.0,87,0.00,,---,0.00,VWS V14.01,2013-08-15 12:16:00,
2013-08-15 08:21:00,49.8,46.1,30.17,WNW,292,0.0,0.0,87,0.00,,---,0.00,VWS V14.01,2013-08-15 12:21:00,
2013-08-15 08:26:00,50.1,46.4,30.17,NNW,338,0.0,0.0,87,0.00,,---,0.00,VWS V14.01,2013-08-15 12:26:00,
2013-08-15 08:31:00,50.1,46.4,30.17,NW,315,0.0,0.0,87,0.00,,---,0.00,VWS V14.01,2013-08-15 12:31:00,
2013-08-15 08:36:00,50.7,47.0,30.17,NW,315,0.0,0.0,87,0.00,,---,0.00,VWS V14.01,2013-08-15 12:36:00,
2013-08-15 08:41:00,50.7,47.0,30.17,NNW,338,0.0,0.0,87,0.00,,---,0.00,VWS V14.01,2013-08-15 12:41:00,
2013-08-15 08:46:00,51.2,47.5,30.17,NNW,338,0.0,0.0,87,0.00,,---,0.00,VWS V14.01,2013-08-15 12:46:00,
2013-08-15 08:51:00,51.4,47.7,30.17,South,180,0.0,0.0,87,0.00,,---,0.00,VWS V14.01,2013-08-15 12:51:00,
2013-08-15 08:56:00,51.8,48.1,30.17,West,270,0.0,0.0,87,0.00,,---,0.19,VWS V14.01,2013-08-15 12:56:00,
2013-08-15 09:01:00,51.9,48.2,30.17,SE,135,0.0,0.0,87,0.00,,---,0.00,VWS V14.01,2013-08-15 13:01:00,
2013-08-15 09:06:00,52.3,48.2,30.17,NW,315,0.0,0.0,86,0.00,,---,0.00,VWS V14.01,2013-08-15 13:06:00,
2013-08-15 09:11:00,52.5,48.4,30.17,SE,135,0.0,0.0,86,0.00,,---,0.00,VWS V14.01,2013-08-15 13:11:00,
2013-08-15 09:16:00,52.7,48.6,30.17,SE,135,0.0,0.0,86,0.00,,---,0.00,VWS V14.01,2013-08-15 13:16:00,
2013-08-15 09:21:00,52.8,48.7,30.17,SE,135,0.0,0.0,86,0.00,,---,0.00,VWS V14.01,2013-08-15 13:21:00,
2013-08-15 09:26:00,53.2,49.1,30.17,SSE,158,0.0,0.0,86,0.00,,---,0.00,VWS V14.01,2013-08-15 13:26:00,
2013-08-15 09:31:00,53.4,49.3,30.17,WNW,292,0.0,0.0,86,0.00,,---,0.00,VWS V14.01,2013-08-15 13:31:00,
2013-08-15 09:36:00,53.7,49.6,30.17,WNW,292,0.0,0.0,86,0.00,,---,0.00,VWS V14.01,2013-08-15 13:36:00,
2013-08-15 09:41:00,54.3,50.2,30.17,NW,315,0.0,0.0,86,0.00,,---,0.19,VWS V14.01,2013-08-15 13:41:00,
2013-08-15 09:46:00,54.5,50.1,30.17,SSE,158,1.1,1.1,85,0.00,,---,0.19,VWS V14.01,2013-08-15 13:46:00,
2013-08-15 09:51:00,54.6,49.9,30.18,SE,135,0.0,0.0,84,0.00,,---,0.00,VWS V14.01,2013-08-15 13:51:00,
2013-08-15 09:56:00,55.2,50.5,30.18,NNW,338,0.0,0.0,84,0.00,,---,0.19,VWS V14.01,2013-08-15 13:56:00,
2013-08-15 10:01:00,55.2,50.5,30.17,WNW,292,0.0,0.0,84,0.00,,---,0.00,VWS V14.01,2013-08-15 14:01:00,
2013-08-15 10:06:00,55.4,50.3,30.18,North,0,0.0,0.0,83,0.00,,---,0.00,VWS V14.01,2013-08-15 14:06:00,
2013-08-15 10:11:00,55.7,50.6,30.18,NE,45,0.0,0.0,83,0.00,,---,0.00,VWS V14.01,2013-08-15 14:11:00,
2013-08-15 10:16:00,55.9,50.5,30.18,NW,315,1.7,1.7,82,0.00,,---,0.00,VWS V14.01,2013-08-15 14:16:00,
2013-08-15 10:21:00,56.1,50.4,30.18,SSW,202,0.0,0.0,81,0.00,,---,0.00,VWS V14.01,2013-08-15 14:21:00,
2013-08-15 10:26:00,56.4,50.0,30.17,ENE,68,0.0,0.0,79,0.00,,---,0.00,VWS V14.01,2013-08-15 14:26:00,
2013-08-15 10:31:00,56.4,49.6,30.18,North,0,0.0,0.0,78,0.00,,---,0.00,VWS V14.01,2013-08-15 14:31:00,
2013-08-15 10:36:00,57.0,49.9,30.18,NNW,338,2.0,2.0,77,0.00,,---,0.00,VWS V14.01,2013-08-15 14:36:00,
2013-08-15 10:41:00,57.3,50.2,30.18,NW,315,0.0,0.0,77,0.00,,---,0.00,VWS V14.01,2013-08-15 14:41:00,
2013-08-15 10:46:00,57.5,50.4,30.17,SE,135,0.0,0.0,77,0.00,,---,0.00,VWS V14.01,2013-08-15 14:46:00,
2013-08-15 10:52:00,57.9,50.4,30.17,NNE,22,0.0,0.0,76,0.00,,---,0.00,VWS V14.01,2013-08-15 14:52:00,
2013-08-15 10:57:00,58.1,50.2,30.17,NNW,338,0.0,0.0,75,0.00,,---,0.00,VWS V14.01,2013-08-15 14:57:00,
2013-08-15 11:02:00,58.2,49.6,30.18,WNW,292,0.0,0.0,73,0.00,,---,0.00,VWS V14.01,2013-08-15 15:02:00,
2013-08-15 11:07:00,58.6,50.0,30.18,NNW,338,0.0,0.0,73,0.00,,---,0.00,VWS V14.01,2013-08-15 15:07:00,
2013-08-15 11:12:00,58.8,50.2,30.17,NNW,338,0.0,0.0,73,0.00,,---,0.00,VWS V14.01,2013-08-15 15:12:00,
2013-08-15 11:17:00,59.3,50.3,30.17,NW,315,0.0,0.0,72,0.00,,---,0.00,VWS V14.01,2013-08-15 15:17:00,
2013-08-15 11:22:00,59.9,50.5,30.17,WNW,292,0.0,0.0,71,0.00,,---,0.00,VWS V14.01,2013-08-15 15:22:00,
2013-08-15 11:27:00,60.4,50.6,30.17,NW,315,7.1,7.1,70,0.00,,---,0.00,VWS V14.01,2013-08-15 15:27:00,
2013-08-15 11:32:00,60.6,50.4,30.17,SSE,158,0.0,0.0,69,0.00,,---,0.00,VWS V14.01,2013-08-15 15:32:00,
2013-08-15 11:37:00,60.9,50.7,30.17,ESE,112,0.0,0.0,69,0.00,,---,0.00,VWS V14.01,2013-08-15 15:37:00,
2013-08-15 11:42:00,61.3,51.1,30.17,NE,45,0.0,0.0,69,0.00,,---,0.00,VWS V14.01,2013-08-15 15:42:00,
2013-08-15 11:47:00,61.3,51.1,30.18,West,270,0.0,0.0,69,0.00,,---,0.00,VWS V14.01,2013-08-15 15:47:00,
2013-08-15 11:52:00,61.3,50.7,30.17,WNW,292,0.0,0.0,68,0.00,,---,0.00,VWS V14.01,2013-08-15 15:52:00,
2013-08-15 11:57:00,61.5,50.8,30.17,SE,135,0.0,0.0,68,0.00,,---,0.00,VWS V14.01,2013-08-15 15:57:00,
2013-08-15 12:02:00,61.8,51.1,30.17,NNW,338,0.0,0.0,68,0.00,,---,0.00,VWS V14.01,2013-08-15 16:02:00,
2013-08-15 12:07:00,62.4,50.9,30.17,NNW,338,0.0,5.1,66,0.00,,---,0.19,VWS V14.01,2013-08-15 16:07:00,
2013-08-15 12:12:00,62.7,51.2,30.17,NW,315,0.0,0.0,66,0.00,,---,0.00,VWS V14.01,2013-08-15 16:12:00,
2013-08-15 12:17:00,63.1,51.6,30.17,NNW,338,0.0,0.0,66,0.00,,---,0.00,VWS V14.01,2013-08-15 16:17:00,
2013-08-15 12:23:00,63.3,51.3,30.17,North,0,0.0,0.0,65,0.00,,---,0.00,VWS V14.01,2013-08-15 16:23:00,
2013-08-15 12:28:00,63.1,50.7,30.17,West,270,0.0,0.0,64,0.00,,---,0.00,VWS V14.01,2013-08-15 16:28:00,
2013-08-15 12:33:00,63.1,51.2,30.17,NW,315,0.0,0.0,65,0.00,,---,0.00,VWS V14.01,2013-08-15 16:33:00,
2013-08-15 12:38:00,63.1,51.6,30.17,NNW,338,0.0,0.0,66,0.00,,---,0.00,VWS V14.01,2013-08-15 16:38:00,
2013-08-15 12:43:00,63.3,51.8,30.17,West,270,0.0,0.0,66,0.00,,---,0.00,VWS V14.01,2013-08-15 16:43:00,
2013-08-15 12:48:00,63.5,51.1,30.16,NW,315,4.9,4.9,64,0.00,,---,0.00,VWS V14.01,2013-08-15 16:48:00,
2013-08-15 12:53:00,64.0,51.2,30.16,SE,135,0.0,0.0,63,0.00,,---,0.00,VWS V14.01,2013-08-15 16:53:00,
2013-08-15 12:58:00,64.0,50.7,30.16,NNW,338,0.0,0.0,62,0.00,,---,0.00,VWS V14.01,2013-08-15 16:58:00,
2013-08-15 13:03:00,64.0,51.2,30.16,WNW,292,0.0,0.0,63,0.00,,---,0.00,VWS V14.01,2013-08-15 17:03:00,
2013-08-15 13:08:00,64.0,50.7,30.17,North,0,0.0,0.0,62,0.00,,---,0.00,VWS V14.01,2013-08-15 17:08:00,
2013-08-15 13:13:00,64.0,50.7,30.16,NNW,338,0.0,0.0,62,0.00,,---,0.00,VWS V14.01,2013-08-15 17:13:00,
2013-08-15 13:18:00,63.6,50.8,30.16,WSW,248,0.0,0.0,63,0.00,,---,0.00,VWS V14.01,2013-08-15 17:18:00,
2013-08-15 13:23:00,64.0,51.2,30.16,WSW,248,0.0,0.0,63,0.00,,---,0.00,VWS V14.01,2013-08-15 17:23:00,
2013-08-15 13:28:00,64.4,51.1,30.16,WSW,248,0.0,0.0,62,0.00,,---,0.00,VWS V14.01,2013-08-15 17:28:00,
2013-08-15 13:33:00,65.1,51.8,30.16,WSW,248,0.0,0.0,62,0.00,,---,0.00,VWS V14.01,2013-08-15 17:33:00,
2013-08-15 13:38:00,65.4,51.2,30.16,North,0,0.0,0.0,60,0.00,,---,0.00,VWS V14.01,2013-08-15 17:38:00,
2013-08-15 13:43:00,65.4,51.2,30.16,NW,315,0.0,0.0,60,0.00,,---,0.00,VWS V14.01,2013-08-15 17:43:00,
2013-08-15 13:48:00,65.4,51.2,30.16,NW,315,8.9,8.9,60,0.00,,---,0.00,VWS V14.01,2013-08-15 17:48:00,
2013-08-15 13:53:00,65.3,50.6,30.16,WSW,248,0.0,0.0,59,0.00,,---,0.00,VWS V14.01,2013-08-15 17:53:00,
2013-08-15 13:58:00,65.3,50.6,30.16,WSW,248,0.0,0.0,59,0.00,,---,0.19,VWS V14.01,2013-08-15 17:58:00,
2013-08-15 14:03:00,65.3,50.2,30.16,WSW,248,0.0,0.0,58,0.00,,---,0.00,VWS V14.01,2013-08-15 18:03:00,
2013-08-15 14:08:00,65.6,50.4,30.16,WSW,248,0.0,0.0,58,0.00,,---,0.00,VWS V14.01,2013-08-15 18:08:00,
2013-08-15 14:14:00,65.8,50.6,30.16,NW,315,0.0,0.0,58,0.00,,---,0.00,VWS V14.01,2013-08-15 18:14:00,
2013-08-15 14:19:00,65.8,50.2,30.16,North,0,0.0,0.0,57,0.00,,---,0.00,VWS V14.01,2013-08-15 18:19:00,
2013-08-15 14:24:00,65.8,50.6,30.16,East,90,0.0,0.0,58,0.00,,---,0.00,VWS V14.01,2013-08-15 18:24:00,
2013-08-15 14:29:00,65.8,50.6,30.15,WSW,248,0.0,0.0,58,0.00,,---,0.00,VWS V14.01,2013-08-15 18:29:00,
2013-08-15 14:34:00,65.8,50.6,30.15,SE,135,0.0,0.0,58,0.00,,---,0.00,VWS V14.01,2013-08-15 18:34:00,
2013-08-15 14:39:00,65.8,50.6,30.15,WSW,248,0.4,0.4,58,0.00,,---,0.00,VWS V14.01,2013-08-15 18:39:00,
2013-08-15 14:44:00,66.0,50.8,30.16,WSW,248,5.8,5.8,58,0.00,,---,0.00,VWS V14.01,2013-08-15 18:44:00,
2013-08-15 14:49:00,66.5,50.3,30.15,WSW,248,0.0,0.0,56,0.00,,---,0.00,VWS V14.01,2013-08-15 18:49:00,
2013-08-15 14:55:00,66.5,50.3,30.15,NW,315,0.0,0.0,56,0.00,,---,0.00,VWS V14.01,2013-08-15 18:55:00,
2013-08-15 15:00:00,66.5,50.3,30.15,WNW,292,0.0,0.0,56,0.00,,---,0.19,VWS V14.01,2013-08-15 19:00:00,
2013-08-15 15:05:00,66.3,50.2,30.16,NE,45,0.0,0.0,56,0.00,,---,0.00,VWS V14.01,2013-08-15 19:05:00,
2013-08-15 15:10:00,66.9,50.7,30.15,NW,315,0.0,0.0,56,0.00,,---,0.00,VWS V14.01,2013-08-15 19:10:00,
2013-08-15 15:15:00,67.1,50.4,30.15,NNW,338,0.0,0.0,55,0.00,,---,0.00,VWS V14.01,2013-08-15 19:15:00,
2013-08-15 15:20:00,67.6,51.4,30.16,ESE,112,0.0,0.0,56,0.00,,---,0.00,VWS V14.01,2013-08-15 19:20:00,
2013-08-15 15:25:00,68.1,51.3,30.16,NW,315,0.0,0.0,55,0.00,,---,0.00,VWS V14.01,2013-08-15 19:25:00,
2013-08-15 15:30:00,67.8,51.1,30.16,NW,315,0.0,0.0,55,0.00,,---,0.00,VWS V14.01,2013-08-15 19:30:00,
2013-08-15 15:35:00,67.6,50.4,30.16,WSW,248,0.0,0.0,54,0.00,,---,0.00,VWS V14.01,2013-08-15 19:35:00,
2013-08-15 15:40:00,67.4,50.2,30.15,WNW,292,0.0,0.0,54,0.00,,---,0.00,VWS V14.01,2013-08-15 19:40:00,
2013-08-15 15:45:00,67.2,50.0,30.15,NNW,338,0.0,5.5,54,0.00,,---,0.00,VWS V14.01,2013-08-15 19:45:00,
2013-08-15 15:50:00,67.6,50.9,30.15,NW,315,0.0,0.0,55,0.00,,---,0.00,VWS V14.01,2013-08-15 19:50:00,
2013-08-15 15:55:00,68.1,50.8,30.16,NW,315,0.0,0.0,54,0.00,,---,0.00,VWS V14.01,2013-08-15 19:55:00,
2013-08-15 16:01:00,68.3,50.5,30.16,East,90,0.0,0.0,53,0.00,,---,0.00,VWS V14.01,2013-08-15 20:01:00,
2013-08-15 16:06:00,68.3,50.0,30.15,NW,315,0.0,0.0,52,0.00,,---,0.00,VWS V14.01,2013-08-15 20:06:00,
2013-08-15 16:11:00,67.8,49.5,30.16,NW,315,0.0,0.0,52,0.00,,---,0.00,VWS V14.01,2013-08-15 20:11:00,
2013-08-15 16:16:00,67.6,49.4,30.15,NW,315,0.0,0.0,52,0.00,,---,0.00,VWS V14.01,2013-08-15 20:16:00,
2013-08-15 16:21:00,67.2,49.0,30.15,NNW,338,0.0,0.0,52,0.00,,---,0.00,VWS V14.01,2013-08-15 20:21:00,
2013-08-15 16:27:00,67.1,49.4,30.15,NW,315,5.3,5.3,53,0.00,,---,0.00,VWS V14.01,2013-08-15 20:27:00,
2013-08-15 16:32:00,66.9,48.7,30.15,NNW,338,0.0,0.0,52,0.00,,---,0.00,VWS V14.01,2013-08-15 20:32:00,
2013-08-15 16:37:00,66.9,49.2,30.15,NW,315,0.0,0.0,53,0.00,,---,0.00,VWS V14.01,2013-08-15 20:37:00,
2013-08-15 16:42:00,66.9,49.2,30.15,North,0,0.0,0.0,53,0.00,,---,0.00,VWS V14.01,2013-08-15 20:42:00,
2013-08-15 16:47:00,66.9,49.2,30.15,NNE,22,0.0,0.0,53,0.00,,---,0.00,VWS V14.01,2013-08-15 20:47:00,
2013-08-15 16:52:00,66.7,49.0,30.15,ENE,68,0.0,0.0,53,0.00,,---,0.00,VWS V14.01,2013-08-15 20:52:00,
2013-08-15 16:57:00,66.9,49.2,30.15,WNW,292,0.0,0.0,53,0.00,,---,0.00,VWS V14.01,2013-08-15 20:57:00,
2013-08-15 17:02:00,66.9,48.7,30.15,NW,315,2.9,2.9,52,0.00,,---,0.00,VWS V14.01,2013-08-15 21:02:00,
2013-08-15 17:07:00,66.9,48.7,30.15,NW,315,1.5,1.5,52,0.00,,---,0.00,VWS V14.01,2013-08-15 21:07:00,
2013-08-15 17:12:00,66.7,49.0,30.15,NW,315,0.0,0.0,53,0.00,,---,0.00,VWS V14.01,2013-08-15 21:12:00,
2013-08-15 17:17:00,66.9,49.2,30.15,NNW,338,0.0,0.0,53,0.00,,---,0.00,VWS V14.01,2013-08-15 21:17:00,
2013-08-15 17:22:00,67.1,49.4,30.15,NNW,338,0.0,0.0,53,0.00,,---,0.00,VWS V14.01,2013-08-15 21:22:00,
2013-08-15 17:27:00,67.2,49.5,30.15,NNE,22,0.0,0.0,53,0.00,,---,0.00,VWS V14.01,2013-08-15 21:27:00,
2013-08-15 17:32:00,67.4,49.7,30.15,WSW,248,0.0,0.0,53,0.00,,---,0.00,VWS V14.01,2013-08-15 21:32:00,
2013-08-15 17:38:00,67.6,49.9,30.15,NNW,338,0.0,0.0,53,0.00,,---,0.00,VWS V14.01,2013-08-15 21:38:00,
2013-08-15 17:43:00,67.6,49.4,30.15,North,0,4.4,4.4,52,0.00,,---,0.00,VWS V14.01,2013-08-15 21:43:00,
2013-08-15 17:48:00,67.6,49.4,30.16,NW,315,0.0,0.0,52,0.00,,---,0.00,VWS V14.01,2013-08-15 21:48:00,
2013-08-15 17:53:00,67.6,49.4,30.16,NW,315,0.0,0.0,52,0.00,,---,0.00,VWS V14.01,2013-08-15 21:53:00,
2013-08-15 17:58:00,67.6,49.4,30.15,NW,315,0.0,0.0,52,0.00,,---,0.00,VWS V14.01,2013-08-15 21:58:00,
2013-08-15 18:03:00,67.6,49.4,30.15,West,270,0.0,0.0,52,0.00,,---,0.00,VWS V14.01,2013-08-15 22:03:00,
2013-08-15 18:08:00,67.2,48.5,30.15,WNW,292,0.0,0.0,51,0.00,,---,0.00,VWS V14.01,2013-08-15 22:08:00,
2013-08-15 18:13:00,67.2,49.0,30.15,NNW,338,0.0,0.0,52,0.00,,---,0.00,VWS V14.01,2013-08-15 22:13:00,
2013-08-15 18:18:00,67.1,48.9,30.15,North,0,0.0,0.0,52,0.00,,---,0.00,VWS V14.01,2013-08-15 22:18:00,
2013-08-15 18:23:00,66.9,49.2,30.15,NNW,338,0.0,0.0,53,0.00,,---,0.00,VWS V14.01,2013-08-15 22:23:00,
2013-08-15 18:28:00,66.7,49.0,30.16,WNW,292,0.0,0.0,53,0.00,,---,0.00,VWS V14.01,2013-08-15 22:28:00,
2013-08-15 18:33:00,66.3,48.7,30.16,NW,315,0.0,0.0,53,0.00,,---,0.00,VWS V14.01,2013-08-15 22:33:00,
2013-08-15 18:38:00,66.0,48.4,30.15,NNW,338,0.0,0.0,53,0.00,,---,0.00,VWS V14.01,2013-08-15 22:38:00,
2013-08-15 18:43:00,65.8,48.7,30.16,NW,315,0.0,0.0,54,0.00,,---,0.00,VWS V14.01,2013-08-15 22:43:00,
2013-08-15 18:48:00,65.6,48.5,30.15,SSW,202,0.0,0.0,54,0.00,,---,0.00,VWS V14.01,2013-08-15 22:48:00,
2013-08-15 18:53:00,65.3,48.2,30.16,NNW,338,0.0,0.0,54,0.00,,---,0.00,VWS V14.01,2013-08-15 22:53:00,
2013-08-15 18:58:00,65.1,48.5,30.16,NNW,338,0.0,0.0,55,0.00,,---,0.00,VWS V14.01,2013-08-15 22:58:00,
2013-08-15 19:03:00,64.9,48.4,30.16,NNW,338,0.0,0.0,55,0.00,,---,0.00,VWS V14.01,2013-08-15 23:03:00,
2013-08-15 19:08:00,64.7,48.2,30.16,NW,315,0.0,0.0,55,0.00,,---,0.00,VWS V14.01,2013-08-15 23:08:00,
2013-08-15 19:13:00,64.5,48.0,30.16,NNW,338,0.0,0.0,55,0.00,,---,0.00,VWS V14.01,2013-08-15 23:13:00,
2013-08-15 19:18:00,64.2,47.7,30.16,NW,315,0.0,0.0,55,0.00,,---,0.00,VWS V14.01,2013-08-15 23:18:00,
2013-08-15 19:23:00,64.0,47.5,30.16,NNW,338,0.0,0.0,55,0.00,,---,0.00,VWS V14.01,2013-08-15 23:23:00,
2013-08-15 19:28:00,63.6,47.2,30.16,NW,315,0.0,0.0,55,0.00,,---,0.00,VWS V14.01,2013-08-15 23:28:00,
2013-08-15 19:33:00,63.5,47.5,30.16,NNW,338,0.0,0.0,56,0.00,,---,0.00,VWS V14.01,2013-08-15 23:33:00,
2013-08-15 19:38:00,63.1,46.7,30.16,NNW,338,0.0,0.0,55,0.00,,---,0.00,VWS V14.01,2013-08-15 23:38:00,
2013-08-15 19:43:00,63.1,47.2,30.16,NW,315,0.0,0.0,56,0.00,,---,0.00,VWS V14.01,2013-08-15 23:43:00,
2013-08-15 19:48:00,62.7,46.8,30.16,NNW,338,0.0,0.0,56,0.00,,---,0.00,VWS V14.01,2013-08-15 23:48:00,
2013-08-15 19:53:00,62.6,46.7,30.16,WNW,292,0.0,0.0,56,0.00,,---,0.00,VWS V14.01,2013-08-15 23:53:00,
2013-08-15 19:58:00,62.4,47.0,30.17,WNW,292,0.0,0.0,57,0.00,,---,0.00,VWS V14.01,2013-08-15 23:58:00,
2013-08-15 20:04:00,62.2,46.8,30.17,NNW,338,0.0,0.0,57,0.00,,---,0.00,VWS V14.01,2013-08-16 00:04:00,
2013-08-15 20:09:00,61.8,46.9,30.17,NNW,338,0.0,0.0,58,0.00,,---,0.00,VWS V14.01,2013-08-16 00:09:00,
2013-08-15 20:14:00,61.5,46.6,30.17,NW,315,0.0,0.0,58,0.00,,---,0.00,VWS V14.01,2013-08-16 00:14:00,
2013-08-15 20:19:00,61.5,46.6,30.17,NW,315,0.0,0.0,58,0.00,,---,0.00,VWS V14.01,2013-08-16 00:19:00,
2013-08-15 20:24:00,61.3,46.9,30.17,NW,315,0.0,0.0,59,0.00,,---,0.00,VWS V14.01,2013-08-16 00:24:00,
2013-08-15 20:29:00,60.9,46.5,30.17,NNW,338,0.0,0.0,59,0.00,,---,0.00,VWS V14.01,2013-08-16 00:29:00,
2013-08-15 20:34:00,60.9,46.9,30.18,NW,315,0.0,0.0,60,0.00,,---,0.00,VWS V14.01,2013-08-16 00:34:00,
2013-08-15 20:39:00,60.6,47.1,30.18,NW,315,0.0,0.0,61,0.00,,---,0.00,VWS V14.01,2013-08-16 00:39:00,
2013-08-15 20:45:00,60.6,47.1,30.18,NW,315,0.0,0.0,61,0.00,,---,0.00,VWS V14.01,2013-08-16 00:45:00,
2013-08-15 20:50:00,60.4,46.9,30.18,NW,315,0.0,0.0,61,0.00,,---,0.00,VWS V14.01,2013-08-16 00:50:00,
2013-08-15 20:55:00,60.0,46.5,30.18,NW,315,0.0,0.0,61,0.00,,---,0.00,VWS V14.01,2013-08-16 00:55:00,
2013-08-15 21:00:00,60.0,47.0,30.18,NW,315,0.0,0.0,62,0.00,,---,0.19,VWS V14.01,2013-08-16 01:00:00,
2013-08-15 21:05:00,59.7,46.7,30.19,NW,315,0.0,0.0,62,0.00,,---,0.00,VWS V14.01,2013-08-16 01:05:00,
2013-08-15 21:10:00,59.5,46.9,30.19,NW,315,0.0,0.0,63,0.00,,---,0.00,VWS V14.01,2013-08-16 01:10:00,
2013-08-15 21:15:00,59.5,46.9,30.20,NW,315,0.0,0.0,63,0.00,,---,0.00,VWS V14.01,2013-08-16 01:15:00,
2013-08-15 21:20:00,59.0,46.8,30.20,NW,315,0.0,0.0,64,0.00,,---,0.00,VWS V14.01,2013-08-16 01:20:00,
2013-08-15 21:25:00,58.8,46.7,30.20,NW,315,0.0,0.0,64,0.00,,---,0.00,VWS V14.01,2013-08-16 01:25:00,
2013-08-15 21:30:00,58.8,46.7,30.20,NW,315,0.0,0.0,64,0.00,,---,0.00,VWS V14.01,2013-08-16 01:30:00,
2013-08-15 21:36:00,58.6,46.9,30.20,NW,315,0.0,0.0,65,0.00,,---,0.00,VWS V14.01,2013-08-16 01:36:00,
2013-08-15 21:41:00,58.2,46.5,30.20,NW,315,0.0,0.0,65,0.00,,---,0.00,VWS V14.01,2013-08-16 01:41:00,
2013-08-15 21:46:00,58.1,46.8,30.20,NW,315,0.0,0.0,66,0.00,,---,0.00,VWS V14.01,2013-08-16 01:46:00,
2013-08-15 21:51:00,57.9,46.6,30.20,NW,315,0.0,0.0,66,0.00,,---,0.00,VWS V14.01,2013-08-16 01:51:00,
2013-08-15 21:56:00,57.7,46.4,30.20,NE,45,0.0,0.0,66,0.00,,---,0.00,VWS V14.01,2013-08-16 01:56:00,
2013-08-15 22:01:00,57.3,46.5,30.20,NE,45,0.0,0.0,67,0.00,,---,0.00,VWS V14.01,2013-08-16 02:01:00,
2013-08-15 22:06:00,57.3,46.5,30.20,NE,45,0.0,0.0,67,0.00,,---,0.00,VWS V14.01,2013-08-16 02:06:00,
2013-08-15 22:11:00,57.2,46.4,30.20,NE,45,0.0,0.0,67,0.00,,---,0.00,VWS V14.01,2013-08-16 02:11:00,
2013-08-15 22:16:00,56.8,46.0,30.21,NE,45,0.0,0.0,67,0.00,,---,0.00,VWS V14.01,2013-08-16 02:16:00,
2013-08-15 22:21:00,56.8,46.0,30.21,NE,45,0.0,0.0,67,0.00,,---,0.00,VWS V14.01,2013-08-16 02:21:00,
2013-08-15 22:26:00,56.8,46.4,30.20,NE,45,0.0,0.0,68,0.00,,---,0.00,VWS V14.01,2013-08-16 02:26:00,
2013-08-15 22:31:00,56.4,46.0,30.21,NE,45,0.0,0.0,68,0.00,,---,0.00,VWS V14.01,2013-08-16 02:31:00,
2013-08-15 22:36:00,56.4,46.0,30.21,NE,45,0.0,0.0,68,0.00,,---,0.00,VWS V14.01,2013-08-16 02:36:00,
2013-08-15 22:41:00,56.3,45.9,30.20,ESE,112,0.0,0.0,68,0.00,,---,0.00,VWS V14.01,2013-08-16 02:41:00,
2013-08-15 22:46:00,55.9,45.9,30.21,ESE,112,0.0,0.0,69,0.00,,---,0.00,VWS V14.01,2013-08-16 02:46:00,
2013-08-15 22:51:00,55.9,46.3,30.21,ESE,112,0.0,0.0,70,0.00,,---,0.00,VWS V14.01,2013-08-16 02:51:00,
2013-08-15 22:56:00,55.5,45.9,30.20,ESE,112,0.0,0.0,70,0.00,,---,0.00,VWS V14.01,2013-08-16 02:56:00,
2013-08-15 23:01:00,55.4,45.8,30.21,ESE,112,0.0,0.0,70,0.00,,---,0.00,VWS V14.01,2013-08-16 03:01:00,
2013-08-15 23:06:00,55.2,45.6,30.22,ESE,112,0.0,0.0,70,0.00,,---,0.00,VWS V14.01,2013-08-16 03:06:00,
2013-08-15 23:11:00,55.2,45.6,30.21,ESE,112,0.0,0.0,70,0.00,,---,0.00,VWS V14.01,2013-08-16 03:11:00,
2013-08-15 23:16:00,55.2,45.6,30.22,ESE,112,0.0,0.0,70,0.00,,---,0.00,VWS V14.01,2013-08-16 03:16:00,
2013-08-15 23:21:00,55.0,45.4,30.22,ESE,112,0.0,0.0,70,0.00,,---,0.00,VWS V14.01,2013-08-16 03:21:00,
2013-08-15 23:26:00,54.6,45.4,30.22,ESE,112,0.0,0.0,71,0.00,,---,0.00,VWS V14.01,2013-08-16 03:26:00,
2013-08-15 23:31:00,54.5,45.3,30.22,ESE,112,0.0,0.0,71,0.00,,---,0.00,VWS V14.01,2013-08-16 03:31:00,
2013-08-15 23:36:00,54.3,45.1,30.22,ESE,112,0.0,0.0,71,0.00,,---,0.00,VWS V14.01,2013-08-16 03:36:00,
2013-08-15 23:41:00,54.1,44.9,30.22,ESE,112,0.0,0.0,71,0.00,,---,0.00,VWS V14.01,2013-08-16 03:41:00,
2013-08-15 23:46:00,53.9,44.7,30.22,ESE,112,0.0,0.0,71,0.00,,---,0.00,VWS V14.01,2013-08-16 03:46:00,
2013-08-15 23:51:00,53.7,44.5,30.22,ESE,112,0.0,0.0,71,0.00,,---,0.00,VWS V14.01,2013-08-16 03:51:00,
2013-08-15 23:56:00,53.6,44.4,30.22,ESE,112,0.0,0.0,71,0.00,,---,0.00,VWS V14.01,2013-08-16 03:56:00,